Tracking 29892 objects as of 21-Nov-2024
HD Live streaming from Space Station
objects crossing your sky now

STARLINK-30466

Track STARLINK-30466 now!
10-day predictions
STARLINK-30466 is classified as:


NORAD ID: 57904
Int'l Code: 2023-146P
Perigee: 565.3 km
Apogee: 567.1 km
Inclination: 43.0 °
Period: 95.8 minutes
Semi major axis: 6937 km
RCS: Unknown
Launch date: September 20, 2023
Source: United States (US)
Launch site: AIR FORCE EASTERN TEST RANGE (AFETR)
Your satellite tracking list
Your tracking list is empty




NASA's NSSDC Master Catalog

Two Line Element Set (TLE):
1 57904U 23146P   24325.60554433  .00009650  00000-0  72818-3 0  9996
2 57904  43.0029   9.2221 0001287 265.7144  94.3551 15.02548951 64690
Source of the keplerian elements: AFSPC